Weather Roundup
Issued by NWS Springfield, MO

Home | Current Version | Previous Version | Text Only | Print | Product List | Glossary On
Versions: 1 2 3 4 5 6 7 8 9 10 11 12 13 14 15 16 17 18 19 20 21 22 23 24 25 26 27 28 29 30 31 32 33 34 35 36 37 38 39 40 41 42 43 44 45 46 47 48 49 50
000
NZUS99 KSGF 272007
HRRSGF

HOURLY WEATHER
NATIONAL WEATHER SERVICE SPRINGFIELD MO
300 PM CDT TUE JUN 27 2017

......SGF CWA......

CITY           SKY/WX    TMP DP  RH WIND       PRES   REMARKS
SPRINGFIELD    CLOUDY    80  64  58 S8        30.06F
JOPLIN         CLOUDY    83  68  60 S8        30.03F
WEST PLAINS    PTSUNNY   78  61  55 S9        30.11F
ROLLA          MOSUNNY   79  58  48 E7        30.07F
OSAGE BEACH    PTSUNNY   79  63  57 S8        30.07F
BRANSON        PTSUNNY   81  63  54 CALM      30.08F

......SURROUNDING SGF CWA......

CITY           SKY/WX    TMP DP  RH WIND       PRES   REMARKS
CHANUTE        CLOUDY    86  62  44 S14       30.00F
PARSONS        PTSUNNY   83  65  54 S9        30.01F
COFFEYVILLE    CLOUDY    85  65  51 S12       29.99F
EMPORIA        CLOUDY    79  69  71 SE12G18   29.97F
GROVE OK       PTSUNNY   86  64  48 SE8       30.04S
ROGERS AR      CLOUDY    82  62  50 SE10      30.06F
SILOAM SPRINGS CLOUDY    84  63  48 S9        30.04F
HARRISON AR    CLOUDY    81  63  54 SE9       30.07F
NEAR YELLVILLE MOSUNNY   82  61  47 SE5       30.05F

......KANSAS AND MISSOURI......

CITY           SKY/WX    TMP DP  RH WIND       PRES   REMARKS
KANSAS CTY INT PTSUNNY   79  64  60 SE13      30.00F
DOWNTOWN KC    MOSUNNY   83  63  50 SE12G20   29.99F
COLUMBIA       SUNNY     79  59  50 E14       30.07F
SEDALIA        MOSUNNY   80  66  62 SE9       30.05F
ST JOSEPH      MOSUNNY   78  64  61 SE13      29.99F
ST LOUIS       MOSUNNY   81  50  33 CALM      30.08F
SPIRIT OF STL  MOSUNNY   80  50  34 CALM      30.06F
KIRKSVILLE     SUNNY     77  52  41 S6        30.07F
WICHITA        MOSUNNY   90  70  51 S21G28    29.91F HX  95
TOPEKA         CLOUDY    80  67  64 S14       29.97F
OLATHE         MOSUNNY   78  66  66 SE12G20   30.01F

......TENNESSEE......

CITY           SKY/WX    TMP DP  RH WIND       PRES   REMARKS
MEMPHIS        MOSUNNY   85  61  44 CALM      30.07F
NASHVILLE      PTSUNNY   83  55  38 E6        30.10F

......ARKANSAS.......

CITY           SKY/WX    TMP DP  RH WIND       PRES   REMARKS
FAYETTEVILLE   PTSUNNY   83  64  52 SE8       30.05F
FT SMITH       PTSUNNY   88  67  49 MISG      30.00F HX  91
LITTLE ROCK    PTSUNNY   83  64  52 SE8       30.06F

......OKLAHOMA.......

CITY           SKY/WX    TMP DP  RH WIND       PRES   REMARKS
TULSA          MOSUNNY   88  65  46 S8        29.97F HX  90
PONCA CITY     MOSUNNY   92  66  42 S9G18     29.93F HX  94
MCALESTER      MOSUNNY   89  68  49 SE8       30.00F HX  93
OKLAHOMA CITY  PTSUNNY   91  65  41 SE13G24   29.97F HX  93

......IOWA............

CITY           SKY/WX    TMP DP  RH WIND       PRES   REMARKS
DES MOINES     PTSUNNY   79  50  36 SE16G23   30.01F
QUAD CITIES    SUNNY     76  45  33 SW7       30.07F

......ILLINOIS........

CITY           SKY/WX    TMP DP  RH WIND       PRES   REMARKS
QUINCY         SUNNY     76  49  38 CALM      30.08F
CHICAGO        MOSUNNY   73  43  33 CALM      30.07F




USA.gov is the U.S. government's official web portal to all federal, state and local government web resources and services.